Погода в Ашхабаде

Погода в Ашхабаде : погода сейчас, прогноз погоды и архив. Всё, что Вы хотите узнать о погоде в Ашхабаде!

Поиск расширенной информации на нашем сайте:

Полезная информация:

Другие новости

Новости СМИ2

Главная страница сайта

Новости сайта

03.07.2017

Напоминаем, что на нашем специализированном сайте Метеоцентр.Азия вы можете получить высокодетализированные автоматические прогнозы погоды по пунктам России, СНГ и мира в авиационном формате (включающие направление и скорость ветра, видимость, явления погоды, количество и форму облачности, нижнюю и верхнюю границу облачности).

Рекомендуем:

Погода в Ашхабаде - сегодня

Время (UTC), дата Ветер
(°,м/с) 
Видим.   Явления Облачность Т
(°С)
Тd
(°С)
f(%) Тe
(°С)
Pmin
(гПа)
dP
(гПа)
Po
(мм)
O2
(г/м3)
Тmin Tmax R s Состояние
почвы
00 16.07.19 250 (З) 10 км    ясно 
+30 +19.8 54 +49  1001.4  734  262           
03 16.07.19 260 (З) 10 км    3/3 1500 м 
[Sc]
+30.8 +19.4 51 +49  1002.2  0.9  734  261  +28        сухая 
06 16.07.19 090 (В) 10 км    6/0 средняя, верхняя 
[Ac trans|Ci fib]
+37.6 +18 32 +53  1000.7  -1  734  256  +28         
09 16.07.19 100 (В) 10 км    3/3 1500 м 
[Cu hum]
+41.8 +14.3 20 +50  999.6  -0.9  733  253           
12 16.07.19 100 (В) 10 км    6/0 средняя, верхняя 
[Ac trans|Ci fib]
+43.7 +12.3 16 +49  998.4  -1.1  732  252           
15 16.07.19 120 (ЮВ) 10 км    6/0 средняя, верхняя 
[Ac trans|Ci fib]
+41.8 +15.1 21 +51  998.3  -0.2  732  253    +43.7       
18 16.07.19 160 (Ю) 10 км    3/0 средняя 
[Ac trans]
+36 +15.1 29 +45  999.7  733  258    +43.7       
21 16.07.19 260 (З) 10 км    ясно 
+33.4 +15.8 35 +44  999.5  -0.3  733  260           
00 17.07.19 330 (СЗ) 10 км    ясно 
+29.2 +15.4 43 +39  999.9  733  263           
03 17.07.19 290 (З) 10 км    ясно 
+33.8 +18.7 41 +50  1001.1  1.6  734  259  +29.2        сухая 
06 17.07.19 290 (З) 10 км    ясно 
+36.2 +18.6 36 +52  1002.2  1.2  735  257  +29.2         
09 17.07.19 300 (СЗ) 10 км    1/1 1500 м 
[Cu hum]
+40.8 +18.2 27 +56  1001.7  -0.2  734  253           
12 17.07.19 360 (С) 10 км    ясно 
+43.2 +14.5 19 +52  1000.2  -1.3  734  252           
15 17.07.19 200 (Ю) 10 км    ясно 
+42.6 +14.4 19 +51  999.8  -0.5  733  253    +43.7       
18 17.07.19 290 (З) 10 км    ясно 
+36.2 +15.5 29 +46  1001.4  1.1  734  258    +43.7       
21 17.07.19 290 (З) 10 км    ясно 
+34.2 +20 43 +54  1002.2  0.8  735  258           
00 18.07.19 270 (З) 10 км    ясно 
+31.2 +20 51 +51  1002.4  735  261           
03 18.07.19 290 (З) 10 км    ясно 
+32.6 +19.2 45 +50  1003.7  1.3  736  260  +30        сухая 
06 18.07.19 300 (СЗ) 10 км    ясно 
+34.2 +20 43 +54  1004.3  0.8  736  259  +30         
09 18.07.19 300 (СЗ) 10 км    ясно 
+37.6 +20 36 +57  1003.9  -0.2  736  256           
12 18.07.19 350 (С) 10 км    ясно 
+40.8 +19.2 29 +58  1002.1  -1.6  735  253           
15 18.07.19 220 (ЮЗ) 10 км    ясно 
+40.4 +16.3 25 +52  1001.7  0.4  734  254    +41       
18 18.07.19 230 (ЮЗ) 10 км    ясно 
+35 +15.4 31 +45  1002.2  0.1  735  259    +41       
21 18.07.19 210 (ЮЗ) 10 км    ясно 
+30.6 +13.4 35 +37  1002.5  -0.1  734  264           
00 19.07.19 290 (З) 10 км    ясно 
+29.4 +13.5 38 +36  1003  0.4  735  265           
Время (UTC), дата Ветер
(°,м/с) 
Видим.   Явления Облачность Т
(°С)
Тd
(°С)
f(%) Тe
(°С)
Pmin
(гПа)
dP
(гПа)
Po
(мм)
O2
(г/м3)
Тmin Tmax R s Состояние
почвы

Для получения пояснительной информации подведите курсор к названию столбца.

ПОГОДА в Ашхабаде - архив

Всё, что Вы хотите узнать о погоде в Ашхабаде - удобно и подробно!

Выберите нужную дату (начиная с 1 января 2018* года) и нажмите кнопку "Найти".
Будут отображены архивные сводки погоды по пункту Ашхабад, начиная с указанной даты.


Отображать данные в формате CSV (для использования в таблицах Excel)


Внимание! Наш архив погоды предназначен исключительно для личного некоммерческого использования в познавательных целях. Если Вам необходимы официальные справки о состоянии погоды (для производственных, юридических, коммерческих и т.п. целей), обращайтесь в органы Росгидромета.

*Примечание: данная дата относится к архиву по метеостанциям СССР (Россия, СНГ, Балтия).
Архив по метеостанциям Зарубежной Европы и Азии (кроме Китая) хранится 10 дней, по другим регионам земного шара (Китай, Африка, Америка, Австралия, Океания) - 1 день.

Ашхабад - район местоположения метеостанции


Название, широта, долгота, высота метеостанции:
Ашхабад (город) 38°ш. 58.3°д. 208 м над ур. моря [Туркменистан]

Дополнительная информация

В oтличие oт бoльшинства пoгoдных сайтoв мы публикуем пoдрoбную метеoинфoрмацию в детальнoм прoфессиoнальнoм фoрмате.

Характеристики температуры и влажнoсти вoздуха измеряются на высoте 2 м в тени вдали oт зданий и деревьев.
Скoрoсть ветра измеряется на высoте 10 м (на урoвне рoста челoвека скoрoсть ветра ниже в 1.5-2 раза). Если метеoстанция нахoдится в гoрoде или в лесу, тo скoрoсть ветра занижена на 2-4 м/с пo сравнению с oткрытым местoм. Скoрoсть ветра над акватoриями крупных рек и oзёр, а также на вершинах хoлмoв на 2-5 м/с выше, чем в oбычных услoвиях.
Атмoсфернoе давление в разных тoчках местнoсти мoжет значительнo oтличаться oт давления на метеoстанции, в зависимoсти oт услoвий рельефа (при пoдъёме на 10 м давление пoнижается примернo на 1 мм рт.ст.).